Location: Beekmeers
(50.8953°N, 3.6968°E)
Time: 11:44:03
(UTC+00:00)

Okean 3 - Pass Details

Date: 23 May 2024
Orbit: 562 x 582 km, 82.5° (Epoch: 14 June)

Event Time Altitude Azimuth Distance (km) Brightness Sun altitude
Exits shadow 01:35:14 20° 238° (WSW) 1,316 4.7 -14.2°
Maximum altitude 01:37:21 33° 288° (WNW) 958 4.4 -14.1°
Drops below altitude 10° 01:41:06 10° 354° (N) 1,870 6.9 -13.8°
Sets 01:43:28 0° 4° (N) 2,774 8.2 -13.6°
